Terminal Aerodrome Forecast
Issued by NWS

Home | Current Version | Previous Version | Text Only | Print | Product List | Glossary On
Versions: 1 2 3 4 5 6 7 8 9 10 11 12 13 14 15 16 17 18 19 20 21 22 23 24 25 26 27 28 29 30 31 32 33 34 35 36 37 38 39 40 41 42 43 44 45 46 47 48 49 50
000
FTUS42 KMFL 051124
TAFMIA
TAF
KMIA 051124Z 0512/0612 12007KT P6SM FEW025
     FM051400 12011KT P6SM VCSH SCT025
     FM051800 13012KT P6SM SCT030 BKN200
     FM060200 13006KT P6SM FEW025 SCT200=

USA.gov is the U.S. government's official web portal to all federal, state and local government web resources and services.